GFSSE_prec_precacc12_057.txt.gz
Total_Precipitation_Accumulation
0.07 0.04 0.16 0.15 0.05 0.03 0.01 0.05 0.13 0.11 0.07 0.01 0.00 0.00 0.00 0.01 0.02 0.00 0.00 0.00 0.00 0.00 0.00 0.00 0.00 0.00 0.00 0.00 0.00 0.00 0.01 0.05 0.16 0.07 0.03 0.06 0.05 0.12 0.07 0.11 0.08 0.01 0.07
0.01 0.02 0.09 0.09 0.12 0.08 0.05 0.04 0.07 0.06 0.05 0.00 0.00 0.00 0.02 0.07 0.03 0.00 0.01 0.12 0.08 0.03 0.00 0.00 0.00 0.00 0.00 0.00 0.00 0.00 0.01 0.03 0.14 0.13 0.15 0.05 0.11 0.17 0.15 0.17 0.14 0.04 0.08
0.00 0.00 0.01 0.15 0.12 0.11 0.05 0.02 0.02 0.01 0.00 0.00 0.00 0.04 0.05 0.01 0.01 0.06 0.01 0.06 0.06 0.04 0.01 0.01 0.02 0.07 0.04 0.02 0.03 0.03 0.06 0.09 0.18 0.46 0.51 0.21 0.08 0.21 0.09 0.04 0.05 0.09 0.04
0.00 0.00 0.00 0.06 0.09 0.06 0.01 0.02 0.04 0.01 0.01 0.03 0.09 0.08 0.05 0.01 0.05 0.14 0.05 0.05 0.07 0.05 0.02 0.02 0.02 0.07 0.07 0.07 0.01 0.04 0.08 0.10 0.21 0.35 0.18 0.07 0.02 0.16 0.07 0.06 0.04 0.06 0.04
0.00 0.00 0.00 0.02 0.03 0.01 0.02 0.04 0.03 0.01 0.04 0.08 0.12 0.05 0.01 0.02 0.02 0.04 0.01 0.02 0.03 0.03 0.01 0.00 0.00 0.02 0.05 0.04 0.01 0.01 0.03 0.11 0.30 0.35 0.08 0.17 0.07 0.13 0.12 0.19 0.20 0.08 0.05
0.00 0.00 0.00 0.01 0.01 0.02 0.09 0.03 0.02 0.03 0.04 0.03 0.05 0.01 0.05 0.06 0.16 0.03 0.02 0.04 0.01 0.01 0.01 0.01 0.01 0.03 0.00 0.00 0.02 0.03 0.04 0.18 0.34 0.17 0.02 0.16 0.21 0.16 0.16 0.11 0.05 0.01 0.02
0.00 0.00 0.00 0.04 0.03 0.03 0.04 0.02 0.03 0.04 0.03 0.03 0.05 0.06 0.12 0.07 0.07 0.02 0.02 0.01 0.00 0.00 0.02 0.05 0.04 0.02 0.01 0.03 0.01 0.02 0.03 0.15 0.10 0.03 0.02 0.27 0.08 0.20 0.03 0.01 0.01 0.02 0.03
0.00 0.00 0.00 0.03 0.03 0.05 0.02 0.04 0.03 0.01 0.03 0.07 0.06 0.06 0.07 0.04 0.05 0.01 0.01 0.00 0.00 0.00 0.00 0.00 0.08 0.04 0.01 0.03 0.04 0.00 0.02 0.08 0.04 0.01 0.07 0.10 0.06 0.17 0.04 0.06 0.03 0.02 0.02
0.00 0.00 0.00 0.01 0.03 0.05 0.04 0.05 0.03 0.04 0.04 0.07 0.06 0.08 0.04 0.02 0.00 0.00 0.00 0.00 0.00 0.00 0.00 0.01 0.03 0.00 0.01 0.02 0.05 0.05 0.04 0.05 0.02 0.00 0.00 0.00 0.10 0.14 0.05 0.07 0.06 0.02 0.01
0.00 0.00 0.00 0.00 0.01 0.02 0.03 0.10 0.02 0.03 0.03 0.08 0.03 0.02 0.03 0.01 0.00 0.00 0.03 0.01 0.00 0.00 0.00 0.00 0.00 0.00 0.02 0.05 0.08 0.10 0.11 0.05 0.01 0.01 0.00 0.00 0.07 0.07 0.04 0.06 0.05 0.04 0.02
0.00 0.00 0.00 0.02 0.01 0.10 0.02 0.07 0.02 0.03 0.06 0.02 0.01 0.05 0.10 0.01 0.00 0.01 0.02 0.00 0.01 0.01 0.01 0.01 0.00 0.00 0.02 0.01 0.04 0.12 0.10 0.01 0.01 0.00 0.00 0.01 0.08 0.06 0.04 0.03 0.02 0.01 0.00
0.00 0.00 0.00 0.00 0.00 0.07 0.02 0.06 0.07 0.02 0.02 0.02 0.04 0.05 0.07 0.04 0.02 0.00 0.00 0.03 0.02 0.02 0.03 0.07 0.04 0.24 0.47 0.16 0.03 0.07 0.08 0.01 0.00 0.00 0.00 0.00 0.02 0.03 0.03 0.01 0.01 0.01 0.01
0.00 0.00 0.00 0.00 0.00 0.01 0.02 0.01 0.03 0.01 0.00 0.01 0.04 0.11 0.05 0.02 0.01 0.00 0.01 0.02 0.06 0.06 0.12 0.33 0.07 0.27 0.88 0.36 0.06 0.05 0.03 0.00 0.00 0.00 0.00 0.00 0.01 0.02 0.01 0.00 0.00 0.00 0.01
0.00 0.00 0.00 0.00 0.01 0.15 0.01 0.00 0.09 0.05 0.01 0.00 0.01 0.03 0.04 0.02 0.00 0.01 0.05 0.07 0.15 0.05 0.06 0.22 0.03 0.03 0.16 0.20 0.03 0.02 0.02 0.03 0.00 0.00 0.00 0.00 0.00 0.01 0.01 0.01 0.00 0.00 0.00
0.00 0.00 0.00 0.00 0.05 0.16 0.03 0.03 0.06 0.03 0.05 0.00 0.00 0.04 0.14 0.02 0.01 0.03 0.08 0.04 0.09 0.06 0.04 0.02 0.02 0.02 0.01 0.00 0.00 0.01 0.01 0.01 0.00 0.00 0.00 0.00 0.00 0.00 0.01 0.01 0.02 0.00 0.00
0.00 0.00 0.00 0.00 0.02 0.05 0.03 0.02 0.01 0.01 0.01 0.00 0.00 0.04 0.21 0.10 0.11 0.13 0.12 0.07 0.07 0.07 0.01 0.01 0.01 0.04 0.01 0.00 0.00 0.00 0.00 0.00 0.00 0.00 0.00 0.00 0.00 0.00 0.00 0.00 0.00 0.00 0.00
0.00 0.00 0.00 0.00 0.00 0.01 0.02 0.03 0.01 0.00 0.00 0.00 0.00 0.00 0.02 0.17 0.18 0.16 0.10 0.10 0.11 0.02 0.01 0.00 0.00 0.00 0.00 0.00 0.00 0.00 0.00 0.00 0.00 0.00 0.00 0.00 0.00 0.00 0.01 0.00 0.00 0.00 0.00
0.00 0.00 0.00 0.00 0.00 0.00 0.00 0.01 0.03 0.00 0.00 0.00 0.00 0.01 0.01 0.08 0.12 0.15 0.10 0.10 0.04 0.00 0.00 0.00 0.00 0.00 0.00 0.00 0.00 0.00 0.00 0.00 0.00 0.00 0.00 0.00 0.00 0.00 0.01 0.00 0.00 0.01 0.00
0.00 0.00 0.00 0.00 0.00 0.00 0.00 0.00 0.01 0.00 0.00 0.01 0.00 0.00 0.00 0.00 0.05 0.35 0.22 0.15 0.08 0.09 0.04 0.00 0.00 0.00 0.00 0.00 0.00 0.00 0.00 0.00 0.00 0.00 0.00 0.00 0.00 0.00 0.00 0.00 0.00 0.00 0.00
0.00 0.00 0.00 0.00 0.00 0.00 0.00 0.00 0.00 0.00 0.00 0.00 0.01 0.00 0.00 0.01 0.07 0.26 0.18 0.16 0.12 0.07 0.16 0.08 0.00 0.00 0.00 0.00 0.00 0.00 0.00 0.00 0.00 0.00 0.00 0.00 0.00 0.00 0.00 0.00 0.00 0.00 0.00
0.00 0.00 0.00 0.00 0.00 0.00 0.00 0.00 0.00 0.00 0.00 0.01 0.00 0.00 0.00 0.01 0.01 0.16 0.19 0.11 0.08 0.04 0.06 0.02 0.00 0.00 0.00 0.00 0.00 0.00 0.00 0.00 0.00 0.00 0.00 0.00 0.00 0.00 0.00 0.00 0.00 0.00 0.00
0.00 0.00 0.00 0.00 0.01 0.00 0.00 0.00 0.00 0.00 0.00 0.00 0.02 0.04 0.00 0.00 0.00 0.04 0.09 0.08 0.10 0.09 0.07 0.08 0.04 0.01 0.00 0.00 0.00 0.00 0.00 0.00 0.00 0.00 0.00 0.00 0.00 0.00 0.00 0.00 0.00 0.00 0.00
0.00 0.00 0.00 0.00 0.00 0.00 0.00 0.00 0.00 0.00 0.00 0.00 0.02 0.01 0.00 0.00 0.00 0.02 0.05 0.10 0.13 0.10 0.03 0.02 0.01 0.00 0.00 0.00 0.00 0.00 0.00 0.00 0.00 0.00 0.00 0.00 0.00 0.00 0.00 0.00 0.00 0.00 0.00
0.00 0.00 0.00 0.00 0.00 0.00 0.00 0.00 0.00 0.00 0.00 0.00 0.00 0.00 0.01 0.00 0.00 0.00 0.07 0.11 0.08 0.13 0.07 0.05 0.01 0.00 0.00 0.00 0.00 0.00 0.00 0.00 0.00 0.00 0.00 0.00 0.00 0.00 0.00 0.00 0.00 0.00 0.00
0.00 0.00 0.00 0.00 0.00 0.00 0.00 0.00 0.00 0.00 0.00 0.00 0.00 0.00 0.02 0.01 0.00 0.00 0.05 0.08 0.04 0.07 0.06 0.09 0.06 0.00 0.01 0.00 0.00 0.00 0.00 0.00 0.00 0.00 0.00 0.00 0.00 0.00 0.00 0.00 0.00 0.00 0.00
0.00 0.00 0.00 0.00 0.00 0.00 0.00 0.00 0.00 0.00 0.00 0.00 0.00 0.00 0.00 0.00 0.00 0.01 0.01 0.02 0.06 0.07 0.09 0.10 0.08 0.02 0.01 0.01 0.00 0.00 0.00 0.00 0.00 0.00 0.00 0.00 0.00 0.00 0.00 0.00 0.00 0.00 0.00

GFSSE_prec_precacc12_060.txt.gz
Total_Precipitation_Accumulation
0.07 0.03 0.10 0.12 0.06 0.03 0.02 0.06 0.12 0.10 0.06 0.01 0.00 0.00 0.00 0.01 0.02 0.00 0.00 0.00 0.00 0.00 0.00 0.00 0.00 0.00 0.00 0.00 0.00 0.00 0.01 0.03 0.11 0.03 0.01 0.02 0.02 0.10 0.07 0.09 0.06 0.00 0.03
0.01 0.02 0.06 0.08 0.10 0.08 0.05 0.06 0.09 0.07 0.05 0.00 0.00 0.00 0.01 0.04 0.01 0.00 0.01 0.12 0.06 0.00 0.00 0.00 0.01 0.00 0.00 0.00 0.00 0.01 0.00 0.03 0.13 0.09 0.10 0.03 0.08 0.14 0.15 0.17 0.08 0.02 0.05
0.00 0.00 0.01 0.14 0.12 0.10 0.04 0.05 0.02 0.00 0.00 0.00 0.00 0.03 0.03 0.02 0.02 0.05 0.01 0.04 0.05 0.02 0.00 0.01 0.04 0.06 0.01 0.01 0.04 0.03 0.02 0.06 0.16 0.38 0.40 0.13 0.05 0.16 0.06 0.01 0.01 0.03 0.03
0.00 0.00 0.00 0.05 0.10 0.06 0.02 0.02 0.01 0.00 0.01 0.02 0.04 0.04 0.04 0.04 0.03 0.07 0.05 0.06 0.07 0.04 0.03 0.02 0.02 0.05 0.05 0.04 0.00 0.03 0.07 0.10 0.20 0.28 0.13 0.05 0.01 0.12 0.06 0.01 0.03 0.06 0.05
0.00 0.00 0.00 0.01 0.04 0.01 0.01 0.03 0.01 0.01 0.02 0.04 0.07 0.05 0.02 0.01 0.01 0.02 0.02 0.02 0.03 0.01 0.00 0.00 0.00 0.01 0.02 0.01 0.00 0.01 0.05 0.13 0.35 0.34 0.05 0.06 0.00 0.08 0.09 0.16 0.19 0.08 0.05
0.00 0.00 0.00 0.01 0.01 0.01 0.04 0.03 0.00 0.00 0.01 0.02 0.04 0.02 0.01 0.04 0.10 0.02 0.02 0.04 0.00 0.00 0.01 0.01 0.01 0.03 0.00 0.00 0.00 0.04 0.07 0.20 0.34 0.16 0.01 0.11 0.13 0.12 0.13 0.11 0.05 0.01 0.04
0.00 0.00 0.00 0.02 0.02 0.01 0.01 0.02 0.02 0.02 0.03 0.02 0.03 0.02 0.07 0.03 0.05 0.02 0.02 0.01 0.00 0.00 0.02 0.04 0.04 0.01 0.00 0.01 0.04 0.06 0.17 0.16 0.10 0.03 0.00 0.13 0.04 0.14 0.03 0.01 0.02 0.04 0.05
0.00 0.00 0.00 0.01 0.02 0.02 0.01 0.03 0.02 0.01 0.03 0.06 0.04 0.04 0.04 0.03 0.03 0.01 0.00 0.00 0.00 0.00 0.00 0.00 0.05 0.02 0.03 0.00 0.00 0.01 0.10 0.16 0.04 0.00 0.02 0.01 0.05 0.16 0.04 0.06 0.04 0.04 0.02
0.00 0.00 0.00 0.00 0.02 0.03 0.03 0.05 0.02 0.04 0.04 0.04 0.01 0.04 0.03 0.01 0.00 0.00 0.00 0.00 0.00 0.00 0.00 0.00 0.01 0.01 0.01 0.01 0.05 0.06 0.08 0.06 0.02 0.00 0.00 0.00 0.09 0.11 0.05 0.04 0.03 0.01 0.02
0.00 0.00 0.00 0.00 0.00 0.00 0.02 0.08 0.02 0.02 0.01 0.03 0.02 0.01 0.02 0.00 0.01 0.00 0.03 0.01 0.00 0.00 0.00 0.00 0.00 0.02 0.04 0.05 0.07 0.13 0.17 0.06 0.01 0.01 0.00 0.00 0.06 0.05 0.03 0.03 0.05 0.04 0.02
0.00 0.00 0.00 0.00 0.00 0.02 0.00 0.04 0.01 0.02 0.05 0.01 0.01 0.05 0.11 0.01 0.00 0.01 0.02 0.01 0.00 0.00 0.00 0.00 0.01 0.03 0.04 0.03 0.06 0.15 0.13 0.01 0.01 0.00 0.00 0.01 0.04 0.02 0.02 0.01 0.01 0.00 0.01
0.00 0.00 0.00 0.00 0.00 0.00 0.00 0.03 0.04 0.01 0.02 0.03 0.05 0.06 0.07 0.04 0.02 0.00 0.00 0.00 0.00 0.02 0.03 0.04 0.02 0.24 0.46 0.16 0.03 0.07 0.08 0.01 0.00 0.00 0.00 0.00 0.01 0.02 0.01 0.01 0.01 0.00 0.00
0.00 0.00 0.00 0.00 0.00 0.00 0.00 0.00 0.02 0.01 0.01 0.02 0.04 0.12 0.05 0.02 0.01 0.01 0.01 0.01 0.06 0.06 0.12 0.33 0.07 0.27 0.88 0.36 0.06 0.05 0.03 0.00 0.00 0.00 0.00 0.00 0.01 0.00 0.00 0.00 0.00 0.00 0.00
0.00 0.00 0.00 0.00 0.01 0.15 0.01 0.00 0.09 0.05 0.02 0.00 0.01 0.03 0.04 0.02 0.01 0.02 0.05 0.07 0.15 0.05 0.06 0.22 0.03 0.03 0.17 0.21 0.03 0.03 0.03 0.03 0.00 0.00 0.00 0.00 0.00 0.00 0.01 0.00 0.00 0.00 0.00
0.00 0.00 0.00 0.00 0.05 0.16 0.03 0.05 0.07 0.03 0.05 0.00 0.00 0.04 0.14 0.03 0.01 0.03 0.07 0.05 0.10 0.07 0.04 0.02 0.02 0.02 0.01 0.00 0.00 0.01 0.01 0.01 0.00 0.00 0.00 0.00 0.00 0.00 0.00 0.01 0.01 0.00 0.00
0.00 0.00 0.00 0.00 0.02 0.05 0.03 0.03 0.02 0.01 0.01 0.00 0.00 0.04 0.21 0.10 0.07 0.09 0.07 0.05 0.05 0.07 0.01 0.01 0.01 0.04 0.01 0.00 0.00 0.00 0.01 0.00 0.00 0.00 0.00 0.00 0.00 0.00 0.00 0.00 0.00 0.00 0.00
0.00 0.00 0.00 0.00 0.00 0.01 0.02 0.03 0.01 0.00 0.00 0.00 0.00 0.00 0.02 0.16 0.14 0.09 0.04 0.05 0.09 0.03 0.01 0.00 0.00 0.00 0.00 0.00 0.00 0.00 0.00 0.00 0.00 0.00 0.00 0.00 0.00 0.00 0.00 0.00 0.00 0.00 0.00
0.00 0.00 0.00 0.00 0.00 0.00 0.00 0.01 0.03 0.00 0.00 0.00 0.00 0.01 0.02 0.10 0.11 0.10 0.05 0.05 0.02 0.01 0.00 0.00 0.00 0.00 0.00 0.00 0.00 0.00 0.00 0.00 0.00 0.00 0.00 0.00 0.00 0.00 0.00 0.00 0.00 0.00 0.00
0.00 0.00 0.00 0.00 0.00 0.00 0.00 0.01 0.01 0.00 0.00 0.01 0.00 0.00 0.01 0.01 0.05 0.35 0.23 0.09 0.02 0.05 0.02 0.00 0.00 0.00 0.00 0.00 0.00 0.00 0.00 0.00 0.00 0.00 0.00 0.00 0.00 0.00 0.00 0.00 0.00 0.00 0.00
0.00 0.00 0.00 0.00 0.00 0.00 0.00 0.00 0.00 0.00 0.00 0.01 0.01 0.00 0.00 0.02 0.08 0.26 0.15 0.05 0.04 0.02 0.10 0.08 0.00 0.00 0.00 0.00 0.00 0.00 0.00 0.00 0.00 0.00 0.00 0.00 0.00 0.00 0.00 0.00 0.00 0.00 0.00
0.00 0.00 0.00 0.00 0.00 0.00 0.00 0.00 0.00 0.00 0.00 0.01 0.02 0.00 0.00 0.03 0.03 0.15 0.15 0.04 0.03 0.01 0.02 0.00 0.00 0.00 0.00 0.00 0.00 0.00 0.00 0.00 0.00 0.00 0.00 0.00 0.00 0.00 0.00 0.00 0.00 0.00 0.00
0.00 0.00 0.00 0.00 0.01 0.00 0.00 0.00 0.00 0.00 0.00 0.00 0.04 0.07 0.00 0.00 0.01 0.03 0.04 0.05 0.06 0.02 0.00 0.00 0.00 0.01 0.00 0.00 0.00 0.00 0.00 0.00 0.00 0.00 0.00 0.00 0.00 0.00 0.00 0.00 0.00 0.00 0.00
0.00 0.00 0.00 0.00 0.00 0.00 0.00 0.00 0.00 0.00 0.00 0.00 0.03 0.02 0.00 0.00 0.00 0.02 0.02 0.05 0.04 0.03 0.00 0.00 0.00 0.00 0.00 0.00 0.00 0.00 0.00 0.00 0.00 0.00 0.00 0.00 0.00 0.00 0.00 0.00 0.00 0.00 0.00
0.00 0.00 0.00 0.00 0.00 0.00 0.00 0.00 0.00 0.00 0.00 0.00 0.00 0.00 0.01 0.00 0.00 0.00 0.00 0.02 0.02 0.03 0.02 0.01 0.00 0.00 0.00 0.00 0.00 0.00 0.00 0.00 0.00 0.00 0.00 0.00 0.00 0.00 0.00 0.00 0.00 0.00 0.00
0.00 0.00 0.00 0.00 0.00 0.00 0.00 0.00 0.00 0.00 0.00 0.00 0.00 0.00 0.02 0.01 0.00 0.00 0.01 0.01 0.02 0.03 0.04 0.03 0.01 0.00 0.01 0.00 0.00 0.00 0.00 0.00 0.00 0.00 0.00 0.00 0.00 0.00 0.00 0.00 0.00 0.00 0.00
0.00 0.00 0.00 0.00 0.00 0.00 0.00 0.00 0.00 0.00 0.00 0.00 0.00 0.00 0.00 0.00 0.01 0.01 0.01 0.01 0.03 0.04 0.07 0.05 0.00 0.00 0.01 0.01 0.00 0.00 0.00 0.00 0.00 0.00 0.00 0.00 0.00 0.00 0.00 0.00 0.00 0.00 0.00

GFSSE_prec_precacc12_063.txt.gz
Total_Precipitation_Accumulation
0.03 0.00 0.04 0.06 0.06 0.04 0.02 0.03 0.05 0.04 0.01 0.00 0.00 0.00 0.00 0.01 0.01 0.00 0.00 0.00 0.00 0.00 0.00 0.00 0.00 0.00 0.00 0.01 0.00 0.00 0.01 0.02 0.01 0.00 0.00 0.00 0.01 0.07 0.06 0.05 0.04 0.01 0.04
0.00 0.00 0.04 0.06 0.10 0.09 0.06 0.06 0.06 0.02 0.00 0.00 0.00 0.00 0.01 0.01 0.00 0.00 0.01 0.08 0.03 0.00 0.00 0.00 0.01 0.00 0.00 0.00 0.01 0.01 0.02 0.03 0.06 0.03 0.05 0.01 0.04 0.10 0.13 0.13 0.03 0.02 0.04
0.00 0.00 0.01 0.12 0.11 0.11 0.05 0.05 0.02 0.00 0.00 0.00 0.00 0.00 0.00 0.02 0.02 0.05 0.01 0.03 0.03 0.02 0.02 0.03 0.02 0.01 0.00 0.01 0.01 0.03 0.03 0.07 0.13 0.28 0.24 0.05 0.04 0.14 0.06 0.02 0.02 0.01 0.03
0.00 0.00 0.00 0.05 0.10 0.06 0.02 0.01 0.01 0.00 0.00 0.00 0.01 0.02 0.03 0.04 0.03 0.05 0.04 0.04 0.04 0.05 0.03 0.02 0.01 0.00 0.01 0.01 0.00 0.00 0.07 0.12 0.18 0.22 0.07 0.03 0.01 0.11 0.06 0.02 0.03 0.06 0.08
0.00 0.00 0.00 0.01 0.04 0.01 0.02 0.02 0.01 0.01 0.01 0.01 0.03 0.01 0.02 0.01 0.01 0.01 0.01 0.02 0.01 0.00 0.00 0.00 0.00 0.00 0.00 0.00 0.00 0.01 0.08 0.14 0.31 0.28 0.04 0.03 0.00 0.04 0.03 0.08 0.09 0.04 0.05
0.00 0.00 0.00 0.01 0.01 0.02 0.03 0.02 0.00 0.00 0.00 0.01 0.05 0.02 0.01 0.01 0.06 0.02 0.02 0.03 0.01 0.01 0.01 0.00 0.00 0.00 0.01 0.04 0.01 0.14 0.30 0.25 0.32 0.14 0.00 0.07 0.06 0.07 0.05 0.04 0.02 0.03 0.02
0.00 0.00 0.00 0.01 0.01 0.02 0.03 0.03 0.02 0.01 0.01 0.02 0.03 0.03 0.07 0.02 0.01 0.03 0.03 0.01 0.00 0.01 0.03 0.00 0.00 0.05 0.11 0.15 0.18 0.20 0.29 0.16 0.09 0.02 0.00 0.02 0.01 0.09 0.03 0.02 0.03 0.04 0.04
0.00 0.00 0.00 0.01 0.01 0.03 0.03 0.03 0.02 0.01 0.03 0.01 0.02 0.06 0.02 0.01 0.01 0.01 0.00 0.00 0.00 0.00 0.00 0.00 0.02 0.09 0.10 0.02 0.03 0.03 0.11 0.16 0.03 0.00 0.01 0.00 0.03 0.10 0.02 0.03 0.04 0.03 0.01
0.00 0.00 0.00 0.00 0.01 0.01 0.04 0.05 0.01 0.02 0.00 0.01 0.01 0.01 0.01 0.00 0.00 0.00 0.00 0.00 0.00 0.00 0.00 0.01 0.01 0.01 0.00 0.01 0.05 0.07 0.08 0.06 0.02 0.00 0.00 0.00 0.07 0.11 0.03 0.01 0.00 0.01 0.02
0.00 0.00 0.00 0.00 0.00 0.00 0.02 0.07 0.01 0.00 0.00 0.00 0.00 0.00 0.02 0.00 0.01 0.00 0.02 0.01 0.00 0.00 0.00 0.03 0.05 0.03 0.04 0.05 0.07 0.14 0.17 0.06 0.01 0.00 0.00 0.00 0.03 0.02 0.01 0.02 0.03 0.03 0.02
0.00 0.00 0.00 0.00 0.00 0.00 0.00 0.02 0.00 0.00 0.00 0.00 0.01 0.05 0.13 0.01 0.00 0.00 0.02 0.01 0.00 0.00 0.00 0.01 0.04 0.04 0.05 0.03 0.06 0.16 0.13 0.01 0.01 0.00 0.00 0.00 0.02 0.01 0.02 0.01 0.01 0.02 0.01
0.00 0.00 0.00 0.00 0.00 0.00 0.00 0.00 0.01 0.00 0.02 0.03 0.05 0.07 0.07 0.04 0.02 0.00 0.00 0.00 0.00 0.03 0.05 0.05 0.01 0.18 0.26 0.10 0.03 0.07 0.08 0.01 0.00 0.00 0.00 0.00 0.00 0.01 0.00 0.01 0.01 0.00 0.01
0.00 0.00 0.00 0.00 0.00 0.00 0.00 0.00 0.02 0.01 0.01 0.02 0.04 0.11 0.05 0.02 0.01 0.01 0.01 0.01 0.07 0.07 0.16 0.33 0.05 0.20 0.61 0.21 0.06 0.05 0.03 0.00 0.00 0.00 0.00 0.00 0.00 0.00 0.00 0.00 0.00 0.00 0.00
0.00 0.00 0.00 0.00 0.01 0.15 0.01 0.00 0.09 0.05 0.02 0.00 0.01 0.04 0.04 0.02 0.01 0.02 0.05 0.07 0.15 0.05 0.05 0.21 0.03 0.03 0.17 0.20 0.03 0.02 0.03 0.02 0.00 0.00 0.00 0.00 0.00 0.00 0.00 0.00 0.00 0.00 0.00
0.00 0.00 0.00 0.00 0.04 0.16 0.03 0.05 0.07 0.03 0.05 0.00 0.00 0.04 0.14 0.02 0.01 0.03 0.07 0.07 0.10 0.07 0.04 0.02 0.02 0.02 0.01 0.00 0.00 0.01 0.01 0.01 0.00 0.00 0.00 0.00 0.00 0.00 0.00 0.00 0.00 0.00 0.00
0.00 0.00 0.00 0.00 0.02 0.05 0.03 0.03 0.02 0.01 0.01 0.00 0.00 0.04 0.21 0.08 0.08 0.10 0.09 0.06 0.06 0.06 0.00 0.00 0.01 0.04 0.01 0.00 0.00 0.00 0.01 0.00 0.00 0.00 0.00 0.00 0.01 0.00 0.00 0.00 0.00 0.00 0.00
0.00 0.00 0.00 0.00 0.00 0.01 0.02 0.03 0.01 0.00 0.02 0.00 0.00 0.00 0.02 0.11 0.13 0.09 0.05 0.05 0.09 0.03 0.01 0.00 0.00 0.00 0.00 0.00 0.00 0.00 0.00 0.00 0.00 0.00 0.00 0.01 0.01 0.00 0.00 0.00 0.00 0.00 0.00
0.00 0.00 0.00 0.00 0.00 0.00 0.01 0.01 0.03 0.00 0.00 0.00 0.00 0.01 0.06 0.04 0.07 0.09 0.05 0.05 0.02 0.01 0.00 0.00 0.00 0.00 0.00 0.00 0.00 0.00 0.00 0.00 0.00 0.00 0.00 0.00 0.00 0.00 0.00 0.00 0.00 0.00 0.00
0.00 0.00 0.00 0.00 0.00 0.00 0.00 0.01 0.01 0.00 0.00 0.01 0.00 0.02 0.06 0.01 0.05 0.25 0.19 0.06 0.02 0.05 0.02 0.00 0.00 0.00 0.00 0.00 0.00 0.00 0.00 0.00 0.00 0.00 0.00 0.00 0.00 0.00 0.00 0.00 0.00 0.00 0.00
0.00 0.00 0.00 0.00 0.00 0.00 0.00 0.01 0.00 0.00 0.00 0.00 0.00 0.04 0.07 0.08 0.13 0.22 0.13 0.04 0.04 0.02 0.06 0.02 0.00 0.00 0.00 0.00 0.00 0.00 0.00 0.00 0.00 0.00 0.00 0.00 0.00 0.00 0.00 0.00 0.00 0.00 0.00
0.00 0.00 0.00 0.00 0.00 0.00 0.00 0.00 0.00 0.00 0.00 0.01 0.04 0.05 0.06 0.05 0.04 0.13 0.13 0.04 0.03 0.01 0.01 0.00 0.00 0.00 0.00 0.00 0.00 0.00 0.00 0.00 0.00 0.00 0.00 0.00 0.00 0.00 0.00 0.00 0.00 0.00 0.00
0.00 0.00 0.00 0.00 0.01 0.00 0.00 0.00 0.00 0.00 0.01 0.02 0.06 0.09 0.02 0.07 0.05 0.03 0.04 0.04 0.03 0.00 0.00 0.00 0.00 0.01 0.00 0.00 0.00 0.00 0.00 0.00 0.00 0.00 0.00 0.00 0.00 0.00 0.00 0.00 0.00 0.00 0.00
0.00 0.00 0.00 0.00 0.00 0.00 0.00 0.00 0.00 0.00 0.00 0.01 0.05 0.02 0.00 0.01 0.01 0.02 0.02 0.04 0.04 0.03 0.00 0.00 0.00 0.00 0.00 0.00 0.00 0.00 0.00 0.00 0.00 0.00 0.00 0.00 0.00 0.00 0.00 0.00 0.00 0.00 0.00
0.00 0.00 0.00 0.00 0.00 0.00 0.00 0.00 0.00 0.00 0.00 0.00 0.01 0.01 0.01 0.01 0.00 0.03 0.00 0.02 0.02 0.02 0.02 0.01 0.00 0.00 0.00 0.00 0.00 0.00 0.00 0.00 0.00 0.00 0.00 0.00 0.00 0.00 0.00 0.00 0.00 0.00 0.00
0.00 0.00 0.00 0.00 0.00 0.00 0.00 0.00 0.00 0.00 0.00 0.00 0.00 0.01 0.02 0.02 0.00 0.03 0.04 0.02 0.02 0.03 0.03 0.01 0.00 0.00 0.01 0.00 0.00 0.00 0.00 0.00 0.00 0.00 0.00 0.00 0.00 0.00 0.00 0.00 0.00 0.00 0.00
0.00 0.00 0.00 0.00 0.00 0.00 0.00 0.00 0.00 0.00 0.00 0.00 0.00 0.00 0.00 0.00 0.01 0.02 0.02 0.02 0.03 0.04 0.06 0.03 0.00 0.00 0.01 0.01 0.00 0.00 0.00 0.00 0.00 0.00 0.00 0.00 0.00 0.00 0.00 0.00 0.00 0.00 0.00

GFSSE_prec_precacc12_069.txt.gz
Total_Precipitation_Accumulation
0.00 0.00 0.07 0.05 0.03 0.01 0.01 0.01 0.00 0.00 0.00 0.00 0.00 0.00 0.00 0.00 0.00 0.00 0.00 0.00 0.01 0.03 0.02 0.01 0.02 0.03 0.03 0.03 0.03 0.01 0.04 0.12 0.05 0.03 0.02 0.02 0.03 0.03 0.04 0.04 0.02 0.01 0.05
0.00 0.00 0.06 0.08 0.01 0.02 0.01 0.01 0.02 0.00 0.00 0.00 0.00 0.01 0.00 0.00 0.00 0.00 0.01 0.00 0.00 0.01 0.08 0.02 0.02 0.04 0.09 0.03 0.03 0.09 0.09 0.12 0.17 0.09 0.01 0.01 0.02 0.04 0.03 0.02 0.02 0.03 0.06
0.00 0.00 0.02 0.07 0.01 0.05 0.01 0.03 0.01 0.00 0.00 0.01 0.01 0.01 0.02 0.03 0.02 0.06 0.02 0.02 0.03 0.04 0.03 0.04 0.05 0.09 0.09 0.08 0.09 0.19 0.15 0.12 0.10 0.05 0.00 0.01 0.04 0.07 0.05 0.04 0.02 0.02 0.01
0.00 0.00 0.00 0.04 0.06 0.09 0.03 0.01 0.01 0.01 0.01 0.01 0.01 0.04 0.04 0.08 0.06 0.08 0.06 0.04 0.04 0.09 0.13 0.02 0.06 0.07 0.06 0.07 0.13 0.07 0.04 0.05 0.02 0.00 0.00 0.01 0.02 0.05 0.04 0.03 0.02 0.02 0.05
0.00 0.00 0.00 0.03 0.05 0.03 0.03 0.00 0.00 0.01 0.00 0.00 0.01 0.03 0.06 0.04 0.03 0.06 0.07 0.04 0.01 0.03 0.09 0.01 0.02 0.04 0.01 0.08 0.22 0.29 0.11 0.05 0.06 0.00 0.00 0.01 0.01 0.03 0.04 0.02 0.01 0.03 0.04
0.00 0.00 0.00 0.01 0.01 0.01 0.01 0.01 0.01 0.02 0.02 0.03 0.04 0.03 0.01 0.01 0.01 0.04 0.06 0.06 0.02 0.02 0.04 0.01 0.02 0.03 0.09 0.20 0.25 0.40 0.43 0.08 0.00 0.00 0.00 0.00 0.00 0.03 0.03 0.02 0.02 0.04 0.03
0.00 0.00 0.00 0.03 0.02 0.01 0.03 0.04 0.03 0.03 0.01 0.05 0.01 0.02 0.02 0.02 0.06 0.16 0.07 0.14 0.11 0.01 0.01 0.00 0.03 0.07 0.16 0.26 0.42 0.42 0.37 0.02 0.00 0.00 0.00 0.00 0.01 0.08 0.03 0.04 0.03 0.03 0.02
0.00 0.00 0.00 0.02 0.02 0.03 0.03 0.02 0.05 0.03 0.02 0.01 0.01 0.04 0.01 0.02 0.12 0.16 0.13 0.05 0.01 0.01 0.00 0.00 0.06 0.15 0.26 0.17 0.17 0.12 0.10 0.09 0.00 0.00 0.00 0.00 0.04 0.07 0.02 0.04 0.02 0.02 0.01
0.00 0.00 0.00 0.00 0.04 0.02 0.05 0.06 0.10 0.08 0.00 0.00 0.01 0.01 0.00 0.03 0.13 0.20 0.07 0.02 0.00 0.01 0.00 0.01 0.10 0.08 0.13 0.09 0.08 0.05 0.04 0.01 0.00 0.00 0.00 0.00 0.08 0.09 0.03 0.01 0.02 0.02 0.02
0.00 0.00 0.00 0.00 0.02 0.02 0.06 0.05 0.04 0.01 0.01 0.01 0.01 0.00 0.03 0.03 0.09 0.05 0.02 0.04 0.01 0.00 0.00 0.04 0.12 0.14 0.25 0.17 0.12 0.06 0.07 0.02 0.00 0.00 0.00 0.00 0.01 0.00 0.01 0.01 0.02 0.02 0.01
0.00 0.00 0.00 0.00 0.00 0.02 0.04 0.04 0.01 0.00 0.00 0.00 0.00 0.02 0.04 0.00 0.00 0.00 0.02 0.04 0.00 0.00 0.00 0.01 0.09 0.20 0.17 0.10 0.06 0.05 0.04 0.00 0.00 0.00 0.00 0.00 0.05 0.07 0.03 0.01 0.00 0.01 0.01
0.00 0.00 0.00 0.00 0.00 0.00 0.01 0.03 0.00 0.00 0.01 0.01 0.01 0.02 0.01 0.00 0.00 0.02 0.03 0.00 0.00 0.01 0.03 0.01 0.02 0.02 0.01 0.02 0.05 0.01 0.00 0.00 0.00 0.00 0.00 0.01 0.04 0.01 0.01 0.00 0.01 0.00 0.01
0.00 0.00 0.00 0.00 0.00 0.00 0.00 0.00 0.00 0.00 0.01 0.01 0.00 0.00 0.00 0.00 0.00 0.03 0.04 0.01 0.02 0.04 0.05 0.00 0.01 0.00 0.00 0.00 0.00 0.00 0.00 0.00 0.00 0.00 0.00 0.00 0.01 0.00 0.01 0.00 0.00 0.00 0.00
0.00 0.00 0.00 0.00 0.00 0.00 0.00 0.00 0.00 0.00 0.01 0.01 0.00 0.01 0.00 0.00 0.00 0.01 0.01 0.00 0.00 0.00 0.00 0.00 0.00 0.01 0.04 0.02 0.00 0.00 0.00 0.00 0.00 0.00 0.00 0.00 0.01 0.01 0.00 0.00 0.00 0.00 0.00
0.00 0.00 0.00 0.00 0.00 0.00 0.00 0.02 0.01 0.00 0.00 0.00 0.00 0.00 0.00 0.01 0.00 0.01 0.01 0.03 0.01 0.01 0.00 0.00 0.00 0.00 0.00 0.00 0.00 0.00 0.00 0.00 0.00 0.00 0.00 0.00 0.00 0.00 0.00 0.00 0.00 0.00 0.00
0.00 0.00 0.00 0.00 0.00 0.00 0.00 0.01 0.01 0.00 0.00 0.00 0.00 0.02 0.01 0.02 0.11 0.08 0.03 0.04 0.00 0.00 0.00 0.00 0.00 0.01 0.00 0.00 0.00 0.00 0.00 0.00 0.00 0.00 0.00 0.00 0.01 0.00 0.00 0.00 0.00 0.00 0.00
0.00 0.00 0.00 0.00 0.00 0.00 0.00 0.00 0.00 0.00 0.01 0.00 0.01 0.04 0.03 0.03 0.12 0.12 0.07 0.04 0.01 0.01 0.00 0.00 0.00 0.00 0.00 0.00 0.00 0.00 0.00 0.00 0.00 0.00 0.00 0.01 0.01 0.00 0.00 0.00 0.00 0.00 0.00
0.00 0.00 0.00 0.00 0.00 0.00 0.00 0.01 0.00 0.00 0.00 0.00 0.00 0.00 0.15 0.17 0.12 0.06 0.06 0.05 0.00 0.00 0.00 0.00 0.00 0.00 0.00 0.00 0.00 0.00 0.00 0.00 0.00 0.00 0.00 0.00 0.00 0.00 0.00 0.00 0.00 0.00 0.00
0.00 0.00 0.00 0.00 0.00 0.00 0.00 0.01 0.00 0.00 0.00 0.00 0.00 0.02 0.14 0.12 0.07 0.14 0.06 0.01 0.00 0.00 0.00 0.00 0.00 0.00 0.00 0.00 0.00 0.00 0.00 0.00 0.00 0.00 0.00 0.00 0.00 0.00 0.00 0.00 0.00 0.00 0.00
0.00 0.00 0.00 0.00 0.00 0.00 0.00 0.01 0.00 0.00 0.00 0.00 0.00 0.04 0.12 0.11 0.15 0.12 0.03 0.00 0.00 0.00 0.00 0.00 0.00 0.00 0.00 0.00 0.00 0.00 0.00 0.00 0.00 0.00 0.00 0.00 0.00 0.00 0.00 0.00 0.00 0.00 0.00
0.00 0.00 0.00 0.00 0.00 0.00 0.00 0.00 0.00 0.00 0.00 0.00 0.04 0.06 0.11 0.06 0.07 0.03 0.04 0.00 0.01 0.00 0.00 0.00 0.00 0.00 0.00 0.00 0.00 0.00 0.00 0.00 0.00 0.00 0.00 0.00 0.00 0.00 0.00 0.00 0.00 0.00 0.00
0.00 0.00 0.00 0.00 0.00 0.00 0.00 0.00 0.00 0.00 0.01 0.02 0.04 0.05 0.04 0.10 0.15 0.00 0.01 0.00 0.00 0.00 0.00 0.00 0.00 0.00 0.00 0.00 0.00 0.00 0.00 0.00 0.00 0.00 0.00 0.00 0.00 0.00 0.00 0.00 0.00 0.00 0.00
0.00 0.00 0.00 0.00 0.00 0.00 0.00 0.00 0.00 0.00 0.00 0.01 0.03 0.02 0.00 0.02 0.07 0.02 0.00 0.00 0.00 0.00 0.00 0.00 0.00 0.00 0.00 0.00 0.00 0.00 0.00 0.00 0.00 0.00 0.00 0.00 0.00 0.00 0.00 0.00 0.00 0.00 0.00
0.00 0.00 0.00 0.00 0.00 0.00 0.00 0.00 0.00 0.00 0.00 0.00 0.01 0.00 0.00 0.01 0.04 0.06 0.00 0.00 0.00 0.00 0.00 0.00 0.00 0.00 0.00 0.00 0.00 0.00 0.00 0.00 0.00 0.00 0.00 0.00 0.00 0.00 0.00 0.00 0.00 0.00 0.00
0.00 0.00 0.00 0.00 0.00 0.00 0.00 0.00 0.00 0.00 0.00 0.00 0.00 0.00 0.00 0.01 0.04 0.07 0.05 0.06 0.01 0.00 0.00 0.00 0.00 0.00 0.00 0.00 0.00 0.00 0.00 0.00 0.00 0.00 0.00 0.00 0.00 0.00 0.00 0.00 0.00 0.00 0.00
0.00 0.00 0.00 0.00 0.00 0.00 0.00 0.00 0.00 0.00 0.00 0.00 0.00 0.00 0.00 0.01 0.07 0.01 0.02 0.09 0.05 0.00 0.01 0.00 0.00 0.00 0.00 0.00 0.00 0.00 0.00 0.00 0.00 0.00 0.00 0.00 0.00 0.00 0.00 0.00 0.00 0.00 0.00

GFSSE_prec_precacc12_072.txt.gz
Total_Precipitation_Accumulation
0.00 0.00 0.08 0.09 0.05 0.01 0.04 0.03 0.00 0.00 0.00 0.00 0.00 0.00 0.00 0.00 0.00 0.00 0.00 0.00 0.01 0.03 0.03 0.03 0.04 0.07 0.04 0.04 0.05 0.04 0.09 0.15 0.06 0.04 0.02 0.03 0.03 0.02 0.03 0.05 0.05 0.03 0.08
0.00 0.00 0.07 0.09 0.01 0.02 0.01 0.00 0.00 0.00 0.00 0.00 0.00 0.01 0.00 0.01 0.00 0.00 0.00 0.00 0.00 0.02 0.12 0.02 0.03 0.04 0.11 0.06 0.05 0.16 0.18 0.15 0.19 0.10 0.01 0.02 0.03 0.04 0.03 0.03 0.03 0.03 0.05
0.00 0.00 0.03 0.08 0.01 0.04 0.00 0.00 0.00 0.01 0.01 0.01 0.02 0.02 0.02 0.01 0.01 0.04 0.03 0.03 0.03 0.04 0.04 0.04 0.05 0.14 0.10 0.09 0.11 0.27 0.19 0.11 0.11 0.05 0.01 0.01 0.05 0.07 0.05 0.04 0.02 0.01 0.01
0.00 0.00 0.00 0.04 0.04 0.08 0.02 0.00 0.00 0.01 0.02 0.02 0.02 0.04 0.03 0.06 0.07 0.08 0.05 0.06 0.05 0.08 0.13 0.02 0.07 0.10 0.07 0.09 0.20 0.10 0.04 0.07 0.03 0.00 0.00 0.01 0.02 0.07 0.04 0.02 0.01 0.01 0.04
0.00 0.00 0.00 0.03 0.03 0.02 0.03 0.01 0.00 0.01 0.01 0.01 0.03 0.03 0.05 0.05 0.04 0.08 0.07 0.04 0.02 0.04 0.09 0.01 0.04 0.07 0.12 0.15 0.26 0.29 0.10 0.04 0.00 0.00 0.01 0.01 0.01 0.04 0.05 0.02 0.03 0.03 0.03
0.00 0.00 0.00 0.01 0.01 0.01 0.01 0.01 0.01 0.03 0.03 0.06 0.06 0.03 0.02 0.02 0.02 0.06 0.07 0.06 0.03 0.05 0.05 0.02 0.05 0.11 0.20 0.30 0.31 0.37 0.40 0.06 0.00 0.00 0.00 0.01 0.02 0.05 0.03 0.02 0.04 0.05 0.03
0.00 0.00 0.00 0.06 0.03 0.01 0.03 0.05 0.04 0.04 0.03 0.09 0.03 0.04 0.05 0.05 0.06 0.16 0.08 0.15 0.11 0.05 0.02 0.01 0.04 0.16 0.24 0.32 0.43 0.36 0.23 0.00 0.00 0.00 0.01 0.03 0.04 0.10 0.03 0.03 0.02 0.01 0.00
0.00 0.00 0.00 0.03 0.04 0.03 0.03 0.03 0.05 0.03 0.03 0.02 0.01 0.06 0.02 0.02 0.12 0.16 0.13 0.06 0.01 0.01 0.00 0.01 0.10 0.26 0.38 0.28 0.18 0.10 0.02 0.00 0.00 0.00 0.02 0.02 0.07 0.08 0.02 0.03 0.01 0.00 0.01
0.00 0.00 0.00 0.01 0.04 0.02 0.06 0.08 0.10 0.08 0.00 0.01 0.02 0.02 0.00 0.03 0.13 0.21 0.07 0.02 0.01 0.03 0.09 0.11 0.20 0.24 0.27 0.10 0.04 0.00 0.00 0.00 0.00 0.00 0.00 0.01 0.10 0.11 0.04 0.02 0.02 0.02 0.03
0.00 0.00 0.00 0.00 0.03 0.04 0.08 0.07 0.04 0.02 0.03 0.02 0.01 0.04 0.12 0.06 0.09 0.05 0.02 0.04 0.01 0.07 0.09 0.13 0.17 0.17 0.29 0.16 0.09 0.01 0.00 0.00 0.00 0.01 0.00 0.00 0.02 0.01 0.00 0.00 0.01 0.02 0.01
0.00 0.00 0.00 0.01 0.01 0.08 0.12 0.10 0.02 0.04 0.03 0.00 0.02 0.07 0.08 0.01 0.00 0.01 0.01 0.03 0.00 0.01 0.00 0.04 0.12 0.19 0.20 0.09 0.03 0.00 0.00 0.00 0.00 0.00 0.00 0.02 0.11 0.10 0.05 0.01 0.00 0.02 0.01
0.00 0.00 0.00 0.00 0.00 0.01 0.03 0.06 0.00 0.00 0.00 0.00 0.00 0.02 0.01 0.00 0.00 0.02 0.02 0.00 0.00 0.01 0.04 0.03 0.06 0.04 0.05 0.06 0.04 0.00 0.00 0.00 0.00 0.00 0.00 0.03 0.06 0.03 0.03 0.01 0.02 0.01 0.00
0.00 0.00 0.00 0.00 0.00 0.01 0.03 0.00 0.00 0.00 0.00 0.00 0.00 0.00 0.00 0.00 0.00 0.02 0.04 0.01 0.02 0.04 0.05 0.01 0.01 0.00 0.00 0.00 0.00 0.00 0.00 0.00 0.00 0.00 0.00 0.01 0.01 0.01 0.01 0.00 0.00 0.00 0.00
0.00 0.00 0.00 0.00 0.00 0.00 0.00 0.00 0.00 0.00 0.00 0.00 0.00 0.01 0.00 0.00 0.00 0.00 0.00 0.00 0.00 0.00 0.00 0.00 0.00 0.01 0.02 0.01 0.00 0.00 0.00 0.00 0.00 0.00 0.00 0.00 0.02 0.01 0.00 0.01 0.00 0.00 0.00
0.00 0.00 0.00 0.00 0.00 0.01 0.00 0.00 0.00 0.00 0.00 0.00 0.00 0.00 0.00 0.00 0.00 0.00 0.00 0.01 0.00 0.00 0.00 0.00 0.00 0.00 0.00 0.00 0.00 0.00 0.00 0.00 0.00 0.00 0.00 0.00 0.00 0.00 0.00 0.00 0.00 0.00 0.00
0.00 0.00 0.00 0.00 0.00 0.00 0.00 0.00 0.00 0.00 0.00 0.00 0.00 0.02 0.01 0.02 0.10 0.07 0.03 0.02 0.00 0.00 0.00 0.00 0.00 0.01 0.00 0.00 0.00 0.00 0.00 0.00 0.00 0.00 0.00 0.00 0.01 0.00 0.00 0.00 0.00 0.00 0.00
0.00 0.00 0.00 0.00 0.00 0.00 0.00 0.00 0.00 0.00 0.01 0.00 0.01 0.04 0.03 0.03 0.12 0.09 0.06 0.04 0.00 0.00 0.00 0.00 0.00 0.00 0.00 0.00 0.00 0.00 0.00 0.00 0.00 0.00 0.00 0.01 0.01 0.00 0.00 0.00 0.00 0.00 0.00
0.00 0.00 0.00 0.00 0.00 0.00 0.00 0.00 0.00 0.00 0.00 0.00 0.00 0.00 0.13 0.20 0.18 0.14 0.09 0.07 0.00 0.00 0.00 0.00 0.00 0.00 0.00 0.00 0.00 0.00 0.00 0.00 0.00 0.00 0.00 0.00 0.00 0.00 0.00 0.00 0.00 0.00 0.00
0.00 0.00 0.00 0.00 0.00 0.00 0.00 0.00 0.00 0.00 0.00 0.00 0.00 0.02 0.13 0.14 0.18 0.23 0.11 0.03 0.00 0.00 0.00 0.00 0.00 0.00 0.00 0.00 0.00 0.00 0.00 0.00 0.00 0.00 0.00 0.00 0.00 0.00 0.00 0.00 0.00 0.00 0.00
0.00 0.00 0.00 0.00 0.00 0.00 0.00 0.01 0.00 0.00 0.00 0.00 0.00 0.04 0.13 0.11 0.23 0.19 0.07 0.04 0.00 0.00 0.00 0.00 0.00 0.00 0.00 0.00 0.00 0.00 0.00 0.00 0.00 0.00 0.00 0.00 0.00 0.00 0.00 0.00 0.00 0.00 0.00
0.00 0.00 0.00 0.00 0.00 0.00 0.00 0.00 0.00 0.00 0.00 0.00 0.02 0.05 0.11 0.05 0.08 0.08 0.06 0.02 0.01 0.00 0.00 0.00 0.00 0.00 0.00 0.00 0.00 0.00 0.00 0.00 0.00 0.00 0.00 0.00 0.00 0.00 0.00 0.00 0.00 0.00 0.00
0.00 0.00 0.00 0.00 0.00 0.00 0.00 0.00 0.00 0.00 0.01 0.03 0.02 0.02 0.04 0.10 0.18 0.03 0.03 0.00 0.00 0.00 0.00 0.00 0.00 0.00 0.00 0.00 0.00 0.00 0.00 0.00 0.00 0.00 0.00 0.00 0.00 0.00 0.00 0.00 0.00 0.00 0.00
0.00 0.00 0.00 0.00 0.00 0.00 0.00 0.00 0.00 0.00 0.02 0.07 0.03 0.01 0.01 0.05 0.08 0.02 0.01 0.00 0.00 0.00 0.00 0.00 0.00 0.00 0.00 0.00 0.00 0.00 0.00 0.00 0.00 0.00 0.00 0.00 0.00 0.00 0.00 0.00 0.00 0.00 0.00
0.00 0.00 0.00 0.00 0.00 0.00 0.00 0.00 0.00 0.00 0.00 0.01 0.01 0.00 0.01 0.04 0.05 0.06 0.00 0.00 0.00 0.00 0.00 0.00 0.00 0.00 0.00 0.00 0.00 0.00 0.00 0.00 0.00 0.00 0.00 0.00 0.00 0.00 0.00 0.00 0.00 0.00 0.00
0.00 0.00 0.00 0.00 0.00 0.00 0.00 0.00 0.00 0.00 0.00 0.02 0.01 0.09 0.06 0.06 0.07 0.08 0.05 0.06 0.01 0.00 0.01 0.00 0.00 0.00 0.00 0.00 0.00 0.00 0.00 0.00 0.00 0.00 0.00 0.00 0.00 0.00 0.00 0.00 0.00 0.00 0.00
0.00 0.00 0.00 0.00 0.00 0.00 0.00 0.00 0.00 0.00 0.00 0.00 0.02 0.08 0.05 0.03 0.09 0.04 0.05 0.10 0.06 0.03 0.04 0.01 0.00 0.01 0.01 0.00 0.00 0.00 0.00 0.00 0.00 0.00 0.00 0.00 0.00 0.00 0.00 0.00 0.00 0.00 0.00

GFSSE_prec_precacc12_075.txt.gz
Total_Precipitation_Accumulation
0.05 0.00 0.05 0.09 0.07 0.02 0.05 0.03 0.00 0.00 0.00 0.00 0.00 0.00 0.00 0.00 0.00 0.00 0.00 0.00 0.01 0.03 0.04 0.04 0.05 0.11 0.08 0.06 0.07 0.06 0.10 0.16 0.06 0.04 0.03 0.04 0.04 0.03 0.07 0.13 0.11 0.03 0.09
0.00 0.00 0.06 0.09 0.01 0.01 0.02 0.00 0.00 0.00 0.00 0.00 0.00 0.01 0.01 0.01 0.00 0.00 0.00 0.00 0.00 0.02 0.12 0.05 0.04 0.04 0.12 0.08 0.08 0.16 0.17 0.16 0.20 0.11 0.03 0.02 0.05 0.09 0.08 0.03 0.03 0.02 0.06
0.00 0.00 0.02 0.07 0.00 0.04 0.02 0.00 0.00 0.01 0.03 0.10 0.04 0.02 0.03 0.01 0.01 0.06 0.02 0.03 0.03 0.04 0.03 0.03 0.05 0.16 0.10 0.08 0.12 0.28 0.17 0.13 0.19 0.13 0.03 0.01 0.04 0.06 0.04 0.02 0.01 0.00 0.01
0.00 0.00 0.00 0.04 0.03 0.09 0.03 0.00 0.01 0.07 0.06 0.09 0.04 0.05 0.03 0.06 0.07 0.09 0.04 0.05 0.05 0.07 0.13 0.03 0.08 0.11 0.07 0.13 0.27 0.10 0.03 0.05 0.05 0.02 0.00 0.01 0.01 0.06 0.04 0.03 0.02 0.01 0.03
0.00 0.00 0.00 0.03 0.03 0.04 0.05 0.00 0.03 0.06 0.02 0.01 0.03 0.03 0.04 0.04 0.04 0.08 0.07 0.04 0.02 0.05 0.09 0.03 0.06 0.08 0.16 0.20 0.27 0.29 0.06 0.01 0.00 0.00 0.01 0.01 0.01 0.04 0.06 0.06 0.08 0.03 0.06
0.00 0.00 0.00 0.02 0.01 0.01 0.02 0.01 0.03 0.04 0.05 0.06 0.04 0.02 0.02 0.02 0.02 0.06 0.06 0.05 0.02 0.06 0.07 0.05 0.06 0.12 0.22 0.26 0.30 0.28 0.17 0.00 0.00 0.00 0.00 0.02 0.02 0.04 0.04 0.04 0.04 0.03 0.03
0.00 0.00 0.01 0.09 0.05 0.01 0.05 0.14 0.14 0.05 0.04 0.09 0.03 0.04 0.05 0.05 0.06 0.14 0.07 0.15 0.12 0.05 0.02 0.01 0.06 0.16 0.15 0.19 0.29 0.22 0.11 0.00 0.00 0.00 0.01 0.03 0.04 0.08 0.01 0.02 0.01 0.01 0.02
0.00 0.00 0.00 0.05 0.05 0.01 0.03 0.12 0.08 0.03 0.03 0.04 0.01 0.04 0.02 0.01 0.12 0.16 0.13 0.06 0.01 0.00 0.00 0.03 0.13 0.30 0.44 0.29 0.15 0.09 0.01 0.00 0.00 0.00 0.02 0.02 0.08 0.07 0.01 0.02 0.02 0.03 0.02
0.00 0.00 0.00 0.01 0.04 0.02 0.07 0.14 0.13 0.08 0.01 0.01 0.01 0.01 0.00 0.03 0.13 0.20 0.08 0.03 0.03 0.03 0.11 0.13 0.22 0.32 0.34 0.10 0.04 0.01 0.00 0.00 0.00 0.01 0.00 0.01 0.10 0.09 0.07 0.03 0.03 0.03 0.04
0.00 0.00 0.00 0.00 0.03 0.04 0.09 0.11 0.07 0.02 0.04 0.02 0.01 0.06 0.15 0.06 0.09 0.06 0.05 0.08 0.10 0.11 0.12 0.11 0.12 0.17 0.30 0.16 0.09 0.00 0.00 0.00 0.00 0.01 0.00 0.00 0.03 0.01 0.01 0.01 0.03 0.02 0.03
0.01 0.00 0.00 0.01 0.01 0.15 0.15 0.12 0.03 0.08 0.04 0.00 0.03 0.07 0.15 0.02 0.00 0.04 0.03 0.04 0.09 0.10 0.01 0.03 0.09 0.19 0.20 0.09 0.03 0.00 0.00 0.00 0.00 0.00 0.00 0.02 0.12 0.10 0.04 0.00 0.00 0.01 0.00
0.00 0.00 0.00 0.01 0.00 0.01 0.03 0.07 0.00 0.01 0.00 0.00 0.00 0.00 0.03 0.00 0.00 0.02 0.02 0.00 0.01 0.01 0.01 0.02 0.06 0.07 0.08 0.06 0.04 0.00 0.00 0.00 0.00 0.00 0.00 0.03 0.06 0.03 0.03 0.01 0.01 0.01 0.00
0.00 0.00 0.00 0.00 0.01 0.01 0.04 0.00 0.00 0.00 0.00 0.00 0.00 0.00 0.00 0.00 0.00 0.02 0.04 0.01 0.01 0.01 0.00 0.01 0.02 0.00 0.00 0.00 0.00 0.00 0.00 0.00 0.00 0.00 0.00 0.01 0.01 0.01 0.01 0.00 0.00 0.00 0.01
0.00 0.00 0.00 0.00 0.01 0.01 0.00 0.00 0.00 0.00 0.00 0.00 0.00 0.00 0.00 0.00 0.00 0.00 0.00 0.00 0.00 0.00 0.00 0.01 0.00 0.01 0.02 0.01 0.00 0.00 0.00 0.00 0.00 0.00 0.00 0.00 0.02 0.01 0.00 0.01 0.00 0.00 0.00
0.00 0.00 0.00 0.00 0.01 0.01 0.00 0.00 0.00 0.00 0.00 0.00 0.00 0.00 0.00 0.00 0.00 0.00 0.00 0.00 0.00 0.00 0.00 0.00 0.00 0.00 0.00 0.00 0.00 0.00 0.00 0.00 0.00 0.00 0.00 0.00 0.00 0.00 0.00 0.00 0.00 0.00 0.00
0.00 0.00 0.00 0.00 0.00 0.00 0.00 0.00 0.00 0.00 0.00 0.00 0.00 0.02 0.02 0.00 0.08 0.05 0.01 0.00 0.00 0.00 0.00 0.00 0.00 0.01 0.00 0.00 0.00 0.00 0.00 0.00 0.00 0.00 0.00 0.00 0.00 0.00 0.00 0.00 0.00 0.00 0.00
0.00 0.00 0.00 0.00 0.00 0.00 0.00 0.00 0.00 0.00 0.00 0.00 0.02 0.04 0.03 0.06 0.12 0.10 0.05 0.03 0.00 0.00 0.00 0.00 0.00 0.00 0.00 0.00 0.00 0.00 0.00 0.00 0.00 0.00 0.00 0.00 0.00 0.00 0.00 0.00 0.00 0.00 0.00
0.00 0.00 0.00 0.00 0.00 0.00 0.00 0.00 0.00 0.00 0.00 0.00 0.00 0.00 0.09 0.20 0.18 0.13 0.09 0.07 0.00 0.00 0.00 0.00 0.00 0.00 0.00 0.00 0.00 0.00 0.00 0.00 0.00 0.00 0.00 0.00 0.00 0.00 0.00 0.00 0.00 0.00 0.00
0.00 0.00 0.00 0.00 0.00 0.00 0.00 0.00 0.00 0.00 0.00 0.00 0.00 0.00 0.08 0.13 0.17 0.23 0.11 0.03 0.00 0.00 0.00 0.00 0.00 0.00 0.00 0.00 0.00 0.00 0.00 0.00 0.00 0.00 0.00 0.00 0.00 0.00 0.00 0.00 0.00 0.00 0.00
0.00 0.00 0.00 0.00 0.00 0.00 0.00 0.00 0.00 0.00 0.00 0.01 0.00 0.01 0.06 0.07 0.19 0.18 0.07 0.04 0.00 0.00 0.00 0.00 0.00 0.00 0.00 0.00 0.00 0.00 0.00 0.00 0.00 0.00 0.00 0.00 0.00 0.00 0.00 0.00 0.00 0.00 0.00
0.00 0.00 0.00 0.00 0.00 0.00 0.00 0.00 0.00 0.00 0.00 0.00 0.00 0.00 0.05 0.05 0.10 0.08 0.06 0.02 0.01 0.00 0.00 0.00 0.00 0.00 0.00 0.00 0.00 0.00 0.00 0.00 0.00 0.00 0.00 0.00 0.00 0.00 0.00 0.00 0.00 0.00 0.00
0.00 0.00 0.00 0.00 0.00 0.00 0.00 0.00 0.00 0.00 0.00 0.02 0.00 0.01 0.02 0.04 0.15 0.03 0.03 0.00 0.00 0.00 0.00 0.00 0.00 0.00 0.00 0.00 0.00 0.00 0.00 0.00 0.00 0.00 0.00 0.00 0.00 0.00 0.00 0.00 0.00 0.00 0.00
0.00 0.00 0.00 0.00 0.00 0.00 0.00 0.00 0.00 0.02 0.05 0.11 0.03 0.01 0.01 0.13 0.09 0.02 0.01 0.00 0.00 0.00 0.00 0.00 0.00 0.00 0.00 0.00 0.00 0.00 0.00 0.00 0.00 0.00 0.00 0.00 0.00 0.00 0.00 0.00 0.00 0.00 0.00
0.00 0.00 0.00 0.00 0.00 0.00 0.00 0.00 0.00 0.00 0.00 0.01 0.01 0.00 0.01 0.04 0.05 0.03 0.00 0.00 0.00 0.01 0.01 0.00 0.00 0.00 0.00 0.00 0.00 0.00 0.00 0.00 0.00 0.00 0.00 0.00 0.00 0.00 0.00 0.00 0.00 0.00 0.00
0.00 0.00 0.00 0.00 0.00 0.00 0.00 0.01 0.00 0.00 0.01 0.02 0.01 0.10 0.08 0.05 0.07 0.05 0.01 0.05 0.01 0.00 0.01 0.00 0.00 0.00 0.00 0.00 0.00 0.00 0.00 0.00 0.00 0.00 0.00 0.00 0.00 0.00 0.00 0.00 0.00 0.00 0.00
0.00 0.00 0.00 0.00 0.00 0.00 0.00 0.00 0.00 0.00 0.01 0.00 0.07 0.11 0.05 0.03 0.09 0.04 0.03 0.14 0.11 0.05 0.04 0.01 0.00 0.01 0.01 0.00 0.00 0.00 0.00 0.00 0.00 0.00 0.00 0.00 0.00 0.00 0.00 0.00 0.00 0.00 0.00